Regional Weather Roundup
Issued by NWS

Home | Current Version | Previous Version | Text Only | Print | Product List | Glossary On
Versions: 1 2 3 4 5 6 7 8 9 10 11 12 13 14 15 16 17 18 19 20 21 22 23 24 25 26 27 28 29 30 31 32 33 34 35 36 37 38 39 40 41 42 43 44 45 46 47 48 49 50
000
ASUS42 KTBW 251610
RWRFL
FLORIDA REGIONAL WEATHER ROUNDUP
NATIONAL WEATHER SERVICE TAMPA BAY RUSKIN FL
1100 AM EST THU DEC 25 2014

NOTE: "FAIR" INDICATES FEW OR NO CLOUDS BELOW 12,000 FEET WITH NO
SIGNIFICANT WEATHER AND/OR OBSTRUCTIONS TO VISIBILITY.


FLZ001>010-012>015-112-114-115-251700-
PANHANDLE FLORIDA

CITY           SKY/WX    TMP DP  RH WIND       PRES   REMARKS
PENSACOLA      SUNNY     50  37  61 N5        30.29R
MILTON NAS     SUNNY     49  37  63 NW7       30.30R
CRESTVIEW      SUNNY     50  37  61 N6        30.31R
DUKE FIELD     FAIR      50  37  61 VRB6      30.29R
VALPARAISO     SUNNY     51  36  57 N12       30.29R
MARY ESTHER    SUNNY     51  33  48 NW9       30.28R
PANAMA CITY    FAIR      50  38  63 NW10      30.27S
TYNDALL AFB    SUNNY     52  48  86 N9        30.28R
APALACHICOLA   SUNNY     57  38  48 N10       30.26R

STATION/POSITION SKY/WX   TEMP    WIND        PRES    WAVE   SWELL
                          AIR SEA DIR/SP/G            HT/PER HT/PER
                          (F)     (DEG/KT/KT) (MB)    (FT/S) (FT/S)
30.1N   87.6W              51 67  340/  6/ 10 1025.4R   3/ 8   2/ 8
29.2N   88.2W              53 73  360/  8/ 12 1025.2R   4/ 8   3/ 8
28.7N   86.0W              58 74  350/ 14/ 19 1024.5R   6/ 8   3/ 8
PANAMA CITY BEAC           49 61   10/  7/ 12 1025.0F
CAPE SAN BLAS    NOT AVBL
TOWER C                    50     360/ 13/ 16 1024.5R
28.5N   84.5W              60 71  360/ 14/ 17 1023.7R   6/ 8   3/ 8

$$
FLZ011-016>038-118-127-128-134-139-239-251700-
NORTH FLORIDA

CITY           SKY/WX    TMP DP  RH WIND       PRES   REMARKS
MARIANNA       SUNNY     51  38  60 VRB7      30.27R
TALLAHASSEE    MOSUNNY   54  36  50 N9        30.26R
PERRY          PTSUNNY   53  38  55 NW8       30.27R
CROSS CITY       N/A     55  46  71 N8        30.24R
LAKE CITY      CLOUDY    52  46  82 NW7       30.24R
GAINESVILLE    CLOUDY    55  48  77 NW5       30.23R
MAYPORT NAS    CLOUDY    56  47  71 VRB6      30.22R
JACKSONVILLE   CLOUDY    55  48  77 NW8       30.22R
JAX NAS        CLOUDY    57  47  69 NW7       30.23R
JAX CRAIG      CLOUDY    56  47  71 W9        30.22R
JAX CECIL      MOSUNNY   55  46  71 NW7       30.23R
FERNANDINA BEA CLOUDY    59  50  72 W12       30.21R
ST AUGUSTINE   CLOUDY    56  48  74 NW3       30.22S

STATION/POSITION SKY/WX   TEMP    WIND        PRES    WAVE   SWELL
                          AIR SEA DIR/SP/G            HT/PER HT/PER
                          (F)     (DEG/KT/KT) (MB)    (FT/S) (FT/S)
SHELL POINT                50     340/  8/ 12   N/A
KEATON BEACH               53     360/  4/  8 1024.4R
CEDAR KEY                  55     360/  6/  9 1023.9R
FERNANDINA                 54 61  290/  9/ 11 1022.5R
30.7N   81.3W                 61                N/A     2/ 6
MAYPORT                    55 62  310/  9/ 10   N/A
31.4N   80.9W              53 59  300/ 16/ 19 1021.4S   3/ 4   2/ 7
ST AUGUSTINE               56     310/  5/  5 1023.7R

$$
FLZ040-043>046-052-053-057-058-063-144-251700-
INTERIOR CENTRAL FLORIDA

CITY           SKY/WX    TMP DP  RH WIND       PRES   REMARKS
OCALA          CLOUDY    57  46  67 NW7       30.23R
THE VILLAGES     N/A     57  48  72 NW5       30.13S
LEESBURG       CLOUDY    59  48  67 N5        30.23R
SANFORD        CLOUDY    60  49  66 N5        30.22R
ORLANDO EXEC   CLOUDY    62  47  57 N7        30.22R
ORLANDO INTL   CLOUDY    63  48  58 N10       30.22R
KISSIMMEE      PTSUNNY   63  50  63 N7        30.23R
WINTER HAVEN   CLOUDY    64  48  56 N9        30.23S
LAKELAND       PTSUNNY   61  50  67 N12       30.22S
OKEECHOBEE     CLOUDY    64  54  68 N9        30.22S

$$
FLZ041-047-054-059-064-141-147-251700-
EAST CENTRAL FLORIDA

CITY           SKY/WX    TMP DP  RH WIND       PRES   REMARKS
ORMOND BEACH   CLOUDY    57  50  77 NW6       30.22R
DAYTONA BEACH  CLOUDY    59  53  80 NW6       30.22R
DELAND         CLOUDY   N/A N/A N/A NW7       30.23S
NEW SMYRNA BEA MOSUNNY   61  52  72 NW7       30.23R
JFK SPACE CTR  CLOUDY    64  51  62 N7        30.22R
TITUSVILLE     PTSUNNY   64  48  55 N12       30.22R
CAPE CANAVERAL CLOUDY    64  49  59 NW12      30.21R
PATRICK AFB    PTSUNNY   64  48  56 N13       30.22R
MELBOURNE      PTSUNNY   66  47  50 N7        30.21S
VERO BEACH     CLOUDY    65  52  62 N12       30.22R
FT PIERCE      CLOUDY    66  50  56 NW8       30.21R
STUART         PTSUNNY   64  57  77 N9G17     30.22R

STATION/POSITION SKY/WX   TEMP    WIND        PRES    WAVE   SWELL
                          AIR SEA DIR/SP/G            HT/PER HT/PER
                          (F)     (DEG/KT/KT) (MB)    (FT/S) (FT/S)
28.5N   80.2W              65 75  320/ 17/ 21 1022.6R
28.9N   78.5W              71 77  310/ 16/ 17 1021.3R   6/ 6   3/16
TRIDENT PIER               63 68  320/  8/  9 1022.8S
28.4N   80.5W                 67                N/A     2/11
27.6N   80.2W                 76                N/A     3/ 4

$$
FLZ050-056-061-142-242-148-248-149-249-151-251-155-255-
160-260-251700-
WEST CENTRAL FLORIDA

CITY           SKY/WX    TMP DP  RH WIND       PRES   REMARKS
CRYSTAL RIVER  CLOUDY    57  45  62 NW3       30.24R
INVERNESS      CLOUDY    57  46  67 N3        30.24S
BROOKSVILLE    CLOUDY    61  48  62 N8        30.24R
ZEPHYRHILLS    CLOUDY    59  50  72 NE6       30.23S
CLEARWATER     CLOUDY    63  52  67 N8        30.22R
TAMPA INTL     CLOUDY    63  49  60 VRB6      30.23R
TAMPA EXEC     CLOUDY    64  50  59 N3        30.23S
PLANT CITY     CLOUDY    63  48  59 N5        30.24S
MACDILL AFB    CLOUDY    66  55  67 VRB7      30.22R
PETER O KNIGHT CLOUDY    64  52  63 NE8       30.22S
ST PETERSBURG  CLOUDY    64  52  64 N14       30.21R
SARASOTA       CLOUDY    64  52  64 NE10      30.20R
VENICE         CLOUDY    64  54  68 NE12      30.21S

STATION/POSITION SKY/WX   TEMP    WIND        PRES    WAVE   SWELL
                          AIR SEA DIR/SP/G            HT/PER HT/PER
                          (F)     (DEG/KT/KT) (MB)    (FT/S) (FT/S)
CEDAR KEY                  55     360/  6/  9 1023.9R
28.5N   84.5W              60 71  360/ 14/ 17 1023.7R   6/ 8   3/ 8
27.3N   84.3W                 75                N/A     6/ 7   2/11
CLEARWATER BEACH           62 67  360/  9/ 12 1023.1R
MIDDLE TAMPA BAY           62      40/ 13/ 16 1023.5R
VENICE                     64 68   60/ 10/ 12 1022.4R

$$
FLZ066-069-070-075>078-162-262-165-265-251700-
SOUTHWEST FLORIDA AND KEYS

CITY           SKY/WX    TMP DP  RH WIND       PRES   REMARKS
PUNTA GORDA    MOSUNNY   67  54  63 N13       30.23R
FT MYERS       PTSUNNY   70  57  63 N9        30.19S
SOUTHWEST INTL PTSUNNY   69  58  67 NE9       30.20R
NAPLES         CLOUDY    70  58  65 N9        30.19R
MARCO ISLAND   CLOUDY    70  61  73 N10G17    30.18S
MARATHON       CLOUDY    73  67  81 N10       30.15R
KEY WEST NAS   LGT RAIN  73  66  78 N15       30.16S
KEY WEST INTL  MOSUNNY   73  65  75 N15G23    30.16F

STATION/POSITION SKY/WX   TEMP    WIND        PRES    WAVE   SWELL
                          AIR SEA DIR/SP/G            HT/PER HT/PER
                          (F)     (DEG/KT/KT) (MB)    (FT/S) (FT/S)
VENICE                     64 68   60/ 10/ 12 1022.4R
NAPLES                     68 76   10/ 10/ 13 1022.7S
26.0N   85.6W              68 74  360/ 16/ 19 1022.5R   7/ 7   3/ 8
DRY TORTUGAS               72      10/ 19/ 20 1021.1R
NW FL BAY                  71      40/ 12/ 14 1020.9R
SAND KEY                   71      10/ 20/ 22 1021.0F
SOMBRERO KEY               71      10/ 15/ 16 1021.4R
LONG KEY                   71 75  360/ 14/ 16 1021.1R
MOLASSES REEF              71 78  360/ 15/ 15 1020.7R

$$
FLZ067-068-071>074-168-172>174-251700-
SOUTHEAST FLORIDA

CITY           SKY/WX    TMP DP  RH WIND       PRES   REMARKS
W PALM BEACH   PTSUNNY   68  60  75 N14       30.18R
FT LAUDER-EXEC CLOUDY    69  62  78 N12       30.18R
FT LAUDERDALE  CLOUDY    68  63  84 N9        30.16S
POMPANO BEACH  PTSUNNY   69  62  78 N12       30.18R
PEMBROKE PINES CLOUDY    70  63  78 N13       30.18S
OPA LOCKA      CLOUDY    69  63  81 N13       30.17S
MIAMI          CLOUDY    71  65  81 NW7       30.16S
WEST KENDALL   CLOUDY    72  63  73 N14       30.16S
HOMESTEAD      PTSUNNY   72  63  73 N15       30.15S

STATION/POSITION SKY/WX   TEMP    WIND        PRES    WAVE   SWELL
                          AIR SEA DIR/SP/G            HT/PER HT/PER
                          (F)     (DEG/KT/KT) (MB)    (FT/S) (FT/S)
PORT EVERGLADES            69     330/  7/ 11 1021.5
VIRGINIA KEY               70 75  350/  7/ 11 1021.4R
LAKE WORTH                 67 76  340/ 14/ 18 1021.7F
SETTLEMENT POINT           71     350/  8/  9 1021.8R

$$



USA.gov is the U.S. government's official web portal to all federal, state and local government web resources and services.